This is the latest recevied weather packets stored in our database for station/object KK4EQF-12. If no packets are shown the sender has not sent any weather packets the latest 1 day(s).
| Time | Temp. | Humidity | Pressure | Rain* | Wind** | Luminosity | Snow |
|---|---|---|---|---|---|---|---|
| 1778014773 | 26.67° C | 100% | 1011.6 hPa | 0 mm | 1.34 m/s, 258° | - | - |
| 1778014473 | 26.67° C | 100% | 1011.6 hPa | 0 mm | 1.34 m/s, 262° | - | - |
| 1778014173 | 26.67° C | 100% | 1011.4 hPa | 0 mm | 1.34 m/s, 258° | - | - |
| 1778013872 | 26.67° C | 100% | 1011.4 hPa | 0 mm | 1.34 m/s, 236° | - | - |
| 1778013572 | 26.11° C | 100% | 1011.4 hPa | 0 mm | 1.79 m/s, 238° | - | - |
| 1778013272 | 26.67° C | 100% | 1011.6 hPa | 0 mm | 1.79 m/s, 236° | - | - |
| 1778012972 | 26.67° C | 100% | 1011.6 hPa | 0 mm | 1.79 m/s, 255° | - | - |
| 1778012671 | 26.67° C | 100% | 1011.6 hPa | 0 mm | 1.79 m/s, 224° | - | - |
| 1778012371 | 27.22° C | 100% | 1011.8 hPa | 0 mm | 1.34 m/s, 236° | - | - |
| 1778012071 | 27.22° C | 100% | 1011.8 hPa | 0 mm | 1.79 m/s, 197° | - | - |
| 1778011770 | 27.22° C | 100% | 1011.9 hPa | 0 mm | 1.34 m/s, 228° | - | - |
| 1778011470 | 27.22° C | 100% | 1011.9 hPa | 0 mm | 1.34 m/s, 252° | - | - |
| 1778011170 | 26.67° C | 100% | 1011.9 hPa | 0 mm | 1.34 m/s, 206° | - | - |
| 1778010870 | 27.22° C | 100% | 1012.1 hPa | 0 mm | 1.34 m/s, 286° | - | - |
| 1778010569 | 27.22° C | 100% | 1012.1 hPa | 0 mm | 1.34 m/s, 224° | - | - |
| 1778010269 | 27.22° C | 3% | 1012.1 hPa | 0 mm | 1.34 m/s, 200° | - | - |
| 1778009969 | 27.22° C | 100% | 1012.1 hPa | 0 mm | 1.34 m/s, 262° | - | - |
| 1778009668 | 27.22° C | 100% | 1012.1 hPa | 0 mm | 1.34 m/s, 188° | - | - |
| 1778009368 | 27.22° C | 10% | 1012.1 hPa | 0 mm | 1.34 m/s, 233° | - | - |
| 1778009068 | 27.22° C | 4% | 1012.1 hPa | 0 mm | 1.34 m/s, 225° | - | - |
| 1778008768 | 27.78° C | 9% | 1012.1 hPa | 0 mm | 0.89 m/s, 165° | - | - |
| 1778008467 | 27.22° C | 3% | 1012.1 hPa | 0 mm | 1.34 m/s, 155° | - | - |
| 1778008167 | 27.22° C | 7% | 1012.1 hPa | 0 mm | 1.34 m/s, 193° | - | - |
| 1778007867 | 27.22° C | 3% | 1012.1 hPa | 0 mm | 1.34 m/s, 231° | - | - |
| 1778007566 | 26.67° C | 100% | 1012.1 hPa | 0 mm | 1.34 m/s, 172° | - | - |
* Rain latest hour (hover to see other rain measurements)
** Current wind speed in m/s (hover to see current wind gust speed)